Beaufort MCAS, SC

7:16 PM EST on November 18, 2017 (GMT -0500)
Beaufort Marine Corps Air Station

Weather History for KNBC - October, 2013

Change the Weather History Date:

Thursday, October 17, 2013

  Actual Average Record
Temperature  
Mean Temperature 73 °F -  
Max Temperature 86 °F 77 °F 91 °F (1972)
Min Temperature 62 °F 60 °F 40 °F (1954)
Cooling Degree Days 8    
Growing Degree Days 23 (Base 50)    
Moisture  
Dew Point 64 °F    
Average Humidity 85    
Maximum Humidity 97    
Minimum Humidity 49    
Precipitation  
Precipitation 0.00 in - - ()
Sea Level Pressure  
Sea Level Pressure 29.96 in    
Wind  
Wind Speed 1 mph (SSW)    
Max Wind Speed 10 mph    
Max Gust Speed -    
Visibility 6 miles    
Events Fog    
Averages and records for this station are not official NWS values.
T = Trace of Precipitation, MM = Missing Value Source: NWS Daily Summary

Daily Weather History Graph

Daily Weather History Graph

Search for Another Location

Airport or City:

Trip Planner

Search our weather history database for the weather conditions in past years. The results will help you decide how hot, cold, wet, or windy it might be!

Date:

Astronomy

Oct. 17, 2013 Rise Set
Actual Time 7:28 AM EDT 6:47 PM EDT
Civil Twilight 7:03 AM EDT 7:12 PM EDT
Nautical Twilight 6:34 AM EDT 7:40 PM EDT
Astronomical Twilight 6:06 AM EDT 8:09 PM EDT
Moon 5:58 PM EDT (10/17) 6:02 AM EDT (10/17)
Length of Visible Light 12h 08m
Length of Day
11h 19m
Waxing Gibbous, 98% of the Moon is Illuminated
Oct 17
Waxing Gibbous
Oct 18
Full
Oct 26
Last Quarter
Nov 3
New
Nov 10
First Quarter

Hourly Weather History & Observations

Time (EDT) Temp. Heat Index Dew Point Humidity Pressure Visibility Wind Dir Wind Speed Gust Speed Precip Events Conditions
12:56 AM 68.0 °F - 64.9 °F 90% 29.98 in 10.0 mi Calm Calm - N/A   Clear
1:56 AM 64.0 °F - 63.0 °F 96% 29.97 in 2.0 mi Calm Calm - N/A   Clear
1:58 AM 64.0 °F - 63.0 °F 96% 29.97 in 1.0 mi Calm Calm - N/A   Clear
2:01 AM 64.0 °F - 63.0 °F 96% 29.97 in 0.5 mi Calm Calm - N/A Fog Fog
2:11 AM 64.0 °F - 63.0 °F 96% 29.97 in 0.2 mi NNE 3.5 mph - N/A Fog Fog
2:25 AM 64.0 °F - 62.1 °F 93% 29.97 in 1.0 mi Calm Calm - N/A   Mist
2:27 AM 64.0 °F - 62.1 °F 93% 29.97 in 2.5 mi Calm Calm - N/A   Partly Cloudy
2:34 AM 64.0 °F - 62.1 °F 93% 29.97 in 10.0 mi Calm Calm - N/A   Partly Cloudy
2:56 AM 64.0 °F - 62.1 °F 93% 29.96 in 4.0 mi Calm Calm - N/A   Clear
3:08 AM 63.0 °F - 62.1 °F 97% 29.96 in 2.5 mi Calm Calm - N/A   Partly Cloudy
3:18 AM 64.0 °F - 62.1 °F 93% 29.96 in 1.0 mi Calm Calm - N/A   Mist
3:21 AM 64.0 °F - 63.0 °F 96% 29.95 in 0.5 mi Calm Calm - N/A Fog Fog
3:33 AM 64.0 °F - 62.1 °F 93% 29.95 in 1.0 mi Calm Calm - N/A   Mist
3:35 AM 63.0 °F - 62.1 °F 97% 29.95 in 2.5 mi Calm Calm - N/A   Scattered Clouds
3:42 AM 63.0 °F - 62.1 °F 97% 29.95 in 10.0 mi Calm Calm - N/A   Partly Cloudy
3:56 AM 63.0 °F - 61.0 °F 93% 29.96 in 6.0 mi Calm Calm - N/A   Clear
4:09 AM 63.0 °F - 61.0 °F 93% 29.95 in 10.0 mi Calm Calm - N/A   Partly Cloudy
4:56 AM 62.1 °F - 61.0 °F 96% 29.96 in 8.0 mi Calm Calm - N/A   Partly Cloudy
5:56 AM 63.0 °F - 61.0 °F 93% 29.97 in 9.0 mi Calm Calm - N/A   Clear
6:30 AM 63.0 °F - 61.0 °F 93% 29.97 in 3.0 mi Calm Calm - N/A   Partly Cloudy
6:56 AM 63.0 °F - 61.0 °F 93% 29.98 in 3.0 mi Calm Calm - N/A   Partly Cloudy
7:56 AM 63.0 °F - 61.0 °F 93% 29.99 in 0.8 mi Calm Calm - N/A   Scattered Clouds
8:33 AM 66.9 °F - 64.0 °F 90% 29.99 in 5.0 mi Calm Calm - N/A Fog Shallow Fog
8:56 AM 69.1 °F - 66.0 °F 90% 30.00 in 10.0 mi Calm Calm - N/A   Partly Cloudy
9:56 AM 73.9 °F - 68.0 °F 82% 30.01 in 10.0 mi SW 3.5 mph - N/A   Scattered Clouds
10:56 AM 78.1 °F - 66.0 °F 66% 30.01 in 10.0 mi WSW 8.1 mph - N/A   Scattered Clouds
11:56 AM 79.0 °F - 63.0 °F 58% 29.99 in 10.0 mi SW 6.9 mph - N/A   Partly Cloudy
12:56 PM 82.9 °F 84.4 °F 64.0 °F 53% 29.97 in 10.0 mi SW 8.1 mph - N/A   Scattered Clouds
1:56 PM 84.0 °F 85.4 °F 64.0 °F 51% 29.94 in 10.0 mi WSW 10.4 mph - N/A   Partly Cloudy
2:56 PM 84.0 °F 84.9 °F 63.0 °F 49% 29.92 in 10.0 mi WSW 9.2 mph - N/A   Mostly Cloudy
3:56 PM 84.9 °F 86.1 °F 64.0 °F 49% 29.91 in 10.0 mi SW 8.1 mph - N/A   Scattered Clouds
4:56 PM 80.1 °F 82.3 °F 66.9 °F 64% 29.90 in 10.0 mi SSE 6.9 mph - N/A   Scattered Clouds
5:56 PM 78.1 °F - 66.9 °F 68% 29.91 in 10.0 mi South 5.8 mph - N/A   Scattered Clouds
6:56 PM 75.9 °F - 69.1 °F 79% 29.91 in 10.0 mi South 5.8 mph - N/A   Scattered Clouds
7:56 PM 73.9 °F - 68.0 °F 82% 29.93 in 10.0 mi SSW 4.6 mph - N/A   Partly Cloudy
8:56 PM 73.9 °F - 69.1 °F 85% 29.93 in 10.0 mi South 3.5 mph - N/A   Partly Cloudy
9:56 PM 73.9 °F - 69.1 °F 85% 29.94 in 10.0 mi SSW 3.5 mph - N/A   Scattered Clouds
10:56 PM 73.9 °F - 69.1 °F 85% 29.93 in 10.0 mi South 3.5 mph - N/A   Clear
11:56 PM 73.0 °F - 70.0 °F 90% 29.93 in 10.0 mi SSW 4.6 mph - N/A   Clear